Location: Raven Rock State Park
(35.4652°N, 78.9116°W)
Time: 09:39:50
(UTC-04:00)

N. Korean satellite - Visible Passes

Search period start: 18 September 2018 00:00
Search period end: 28 September 2018 00:00
Orbit: 458 x 511 km, 97.2° (Epoch: 17 September)

Date Brightness Start Highest point End Pass type
(mag) Time Alt. Az. Time Alt. Az. Time Alt. Az.
18 Sep 10.7 06:31:43 10° E 06:32:21 10° E 06:32:59 10° ESE visible
19 Sep 9.7 19:45:18 10° SW 19:47:45 18° W 19:50:14 10° NW visible
23 Sep 9.7 19:41:08 10° SW 19:43:48 20° W 19:46:30 10° NW visible
26 Sep 10.3 20:03:18 10° WSW 20:04:19 11° W 20:05:20 10° WNW visible
27 Sep 9.4 19:36:57 10° SSW 19:39:48 23° W 19:42:43 10° NW visible
